KG4QXF Weather Reports


Display with metric or nautical units.
time (UTC)temp
F
wind
direction
speed
MPH
gust
MPH
rain 1hr
in
rain 24hr
in
rain mn
in
humidity
%
barometer
mb
20260507003619 73 162 1.0 2.0 0.00 0.00 0.00 89 1016.2
20260507003114 73 113 0.0 6.0 0.00 0.00 0.00 89 1016.2
20260507002610 73 145 2.0 8.0 0.00 0.00 0.00 88 1016.2
20260507002106 73 166 2.0 4.0 0.00 0.00 0.00 88 1016.0
20260507001603 73 131 6.0 8.0 0.00 0.00 0.00 88 1016.4
20260507001101 73 153 2.0 4.0 0.00 0.00 0.00 87 1016.3
20260507000556 73 152 1.0 7.0 0.00 0.00 0.00 87 1016.3
20260507000052 73 174 1.0 6.0 0.00 0.00 0.00 86 1016.1
20260506235550 74 157 3.0 4.0 0.00 0.00 0.00 86 1016.6
20260506235045 74 112 3.0 4.0 0.00 0.00 0.00 86 1016.3
20260506234543 74 137 1.0 8.0 0.00 0.00 0.00 85 1016.4
20260506234039 74 147 2.0 6.0 0.00 0.00 0.00 84 1016.3
20260506233537 74 169 2.0 8.0 0.00 0.00 0.00 84 1016.2
20260506233033 74 169 2.0 4.0 0.00 0.00 0.00 83 1016.2
20260506232529 74 148 2.0 4.0 0.00 0.00 0.00 82 1016.1
20260506232024 74 113 0.0 2.0 0.00 0.00 0.00 82 1016.2
20260506231522 74 141 6.0 10.0 0.00 0.00 0.00 81 1016.4
20260506231015 74 153 2.0 3.0 0.00 0.00 0.00 82 1016.5
20260506230510 74 156 1.0 4.0 0.00 0.00 0.00 82 1016.5
20260506230009 74 203 1.0 2.0 0.00 0.00 0.00 82 1016.3
20260506225505 75 119 1.0 7.0 0.00 0.00 0.00 82 1016.2
20260506225001 74 148 2.0 6.0 0.00 0.00 0.00 82 1016.3
20260506224458 74 114 1.0 7.0 0.00 0.00 0.00 81 1016.4
20260506223955 75 30 4.0 9.0 0.00 0.00 0.00 81 1016.3
20260506223451 75 147 9.0 15.0 0.00 0.00 0.00 80 1016.2
20260506222948 75 119 4.0 10.0 0.00 0.00 0.00 80 1016.0
20260506222444 75 86 1.0 9.0 0.00 0.00 0.00 79 1015.9
20260506221941 76 135 2.0 7.0 0.00 0.00 0.00 79 1016.1
20260506221438 76 135 5.0 9.0 0.00 0.00 0.00 78 1015.9
20260506220936 77 103 1.0 4.0 0.00 0.00 0.00 78 1015.9
20260506220431 76 69 1.0 7.0 0.00 0.00 0.00 77 1016.2
20260506215928 77 34 2.0 4.0 0.00 0.00 0.00 76 1016.0
20260506215424 76 162 2.0 8.0 0.00 0.00 0.00 77 1016.1
20260506214920 76 90 3.0 6.0 0.00 0.00 0.00 78 1016.4
20260506214417 76 139 2.0 4.0 0.00 0.00 0.00 77 1016.2
20260506213915 76 150 4.0 9.0 0.00 0.00 0.00 77 1016.4
20260506213413 76 198 1.0 4.0 0.00 0.00 0.00 77 1016.5
20260506212910 76 187 8.0 11.0 0.00 0.00 0.00 77 1016.4
20260506212405 77 148 6.0 10.0 0.00 0.00 0.00 76 1016.3
20260506211900 77 140 3.0 9.0 0.00 0.00 0.00 76 1016.5
20260506211357 77 144 2.0 6.0 0.00 0.00 0.00 76 1016.4
20260506210854 77 180 3.0 10.0 0.00 0.00 0.00 76 1016.4
20260506210351 77 149 4.0 7.0 0.00 0.00 0.00 76 1016.4
20260506205848 77 152 3.0 10.0 0.00 0.00 0.00 75 1016.4
20260506205344 78 173 1.0 7.0 0.00 0.00 0.00 74 1016.5
20260506204840 78 121 6.0 10.0 0.00 0.00 0.00 75 1016.5
20260506204338 79 170 1.0 6.0 0.00 0.00 0.00 73 1016.3
20260506203836 78 139 3.0 14.0 0.00 0.00 0.00 73 1016.3
20260506203332 78 184 3.0 7.0 0.00 0.00 0.00 71 1016.3
20260506202829 79 184 3.0 7.0 0.00 0.00 0.00 71 1016.9
20260506202327 79 104 3.0 10.0 0.00 0.00 0.00 72 1016.7
20260506201823 79 325 3.0 7.0 0.00 0.00 0.00 71 1016.9
20260506201321 79 190 7.0 9.0 0.00 0.00 0.00 71 1016.6
20260506200817 79 86 2.0 6.0 0.00 0.00 0.00 72 1016.8
20260506200313 78 171 2.0 10.0 0.00 0.00 0.00 73 1016.8
20260506195809 78 115 2.0 9.0 0.00 0.00 0.00 74 1016.8
20260506195307 79 163 2.0 6.0 0.00 0.00 0.00 72 1016.9
20260506194804 78 98 2.0 3.0 0.00 0.00 0.00 72 1017.1
20260506194300 78 238 3.0 10.0 0.00 0.00 0.00 73 1016.8
20260506193758 79 119 5.0 9.0 0.00 0.00 0.00 72 1017.1
20260506193254 79 36 2.0 9.0 0.00 0.00 0.00 72 1017.1
20260506192750 80 155 3.0 6.0 0.00 0.00 0.00 72 1017.1
20260506192248 81 99 4.0 7.0 0.00 0.00 0.00 68 1017.1
20260506191744 79 122 4.0 4.0 0.00 0.00 0.00 69 1017.2
20260506191240 81 165 7.0 9.0 0.00 0.00 0.00 69 1017.3
20260506190738 81 141 4.0 8.0 0.00 0.00 0.00 67 1017.3
20260506190234 80 137 2.0 6.0 0.00 0.00 0.00 68 1017.5
20260506185732 80 167 3.0 7.0 0.00 0.00 0.00 69 1017.7
20260506185228 82 144 0.0 2.0 0.00 0.00 0.00 68 1017.7
20260506184725 80 278 4.0 4.0 0.00 0.00 0.00 69 1017.8
20260506184223 80 165 2.0 6.0 0.00 0.00 0.00 71 1017.9
20260506183719 80 158 4.0 4.0 0.00 0.00 0.00 70 1018.2
20260506183215 80 138 5.0 6.0 0.00 0.00 0.00 70 1018.2
20260506182712 80 175 2.0 4.0 0.00 0.00 0.00 69 1018.3
20260506182209 80 143 8.0 9.0 0.00 0.00 0.00 69 1018.2
20260506181707 80 209 4.0 8.0 0.00 0.00 0.00 70 1018.0
20260506181204 80 175 2.0 6.0 0.00 0.00 0.00 71 1018.2
20260506180702 80 156 1.0 6.0 0.00 0.00 0.00 70 1018.4
20260506180157 80 200 3.0 7.0 0.00 0.00 0.00 71 1018.1
20260506175654 80 187 4.0 8.0 0.00 0.00 0.00 69 1018.2
20260506175151 79 179 3.0 6.0 0.00 0.00 0.00 71 1018.4
20260506174648 80 126 3.0 7.0 0.00 0.00 0.00 71 1018.4
20260506174145 80 168 3.0 9.0 0.00 0.00 0.00 70 1018.6
20260506173644 79 185 1.0 3.0 0.00 0.00 0.00 72 1018.5
20260506173140 79 204 4.0 7.0 0.00 0.00 0.00 71 1018.7
20260506172637 79 167 3.0 6.0 0.00 0.00 0.00 70 1018.6
20260506172133 80 100 2.0 4.0 0.00 0.00 0.00 69 1018.8
20260506171631 80 90 3.0 9.0 0.00 0.00 0.00 69 1018.6
20260506171129 80 142 4.0 6.0 0.00 0.00 0.00 67 1018.7
20260506170626 81 188 6.0 9.0 0.00 0.00 0.00 67 1018.9
20260506170122 82 153 2.0 7.0 0.00 0.00 0.00 65 1018.9
20260506165621 82 174 1.0 2.0 0.00 0.00 0.00 65 1018.8
20260506165111 81 136 6.0 9.0 0.00 0.00 0.00 67 1018.5
20260506164609 82 42 0.0 3.0 0.00 0.00 0.00 66 1018.9
20260506164106 82 75 2.0 2.0 0.00 0.00 0.00 66 1018.7
20260506163602 80 202 5.0 7.0 0.00 0.00 0.00 66 1018.8
20260506163057 81 179 4.0 8.0 0.00 0.00 0.00 65 1018.9
20260506162554 81 139 3.0 6.0 0.00 0.00 0.00 66 1018.8
20260506162051 80 183 4.0 7.0 0.00 0.00 0.00 65 1019.0
20260506161548 80 211 5.0 7.0 0.00 0.00 0.00 65 1019.2
20260506161040 79 172 3.0 8.0 0.00 0.00 0.00 65 1019.1
20260506160537 78 161 5.0 7.0 0.00 0.00 0.00 66 1019.1
20260506160034 78 139 6.0 10.0 0.00 0.00 0.00 66 1019.0
20260506155533 78 98 5.0 7.0 0.00 0.00 0.00 64 1019.1
20260506153709 80 128 3.0 6.0 0.00 0.00 0.00 63 1019.2
20260506153207 80 145 3.0 8.0 0.00 0.00 0.00 63 1018.8
20260506152703 79 192 7.0 11.0 0.00 0.00 0.00 62 1019.2
20260506152201 80 196 2.0 7.0 0.00 0.00 0.00 62 1019.2
20260506151701 80 171 4.0 6.0 0.00 0.00 0.00 64 1019.4
20260506151156 79 166 3.0 4.0 0.00 0.00 0.00 65 1019.2
20260506150653 80 179 2.0 6.0 0.00 0.00 0.00 65 1019.1
20260506150150 81 136 4.0 6.0 0.00 0.00 0.00 62 1019.0
20260506145647 80 81 1.0 3.0 0.00 0.00 0.00 65 1019.2
20260506145144 78 191 2.0 7.0 0.00 0.00 0.00 66 1019.1
20260506144642 79 160 3.0 4.0 0.00 0.00 0.00 67 1019.0
20260506144138 79 111 2.0 4.0 0.00 0.00 0.00 67 1018.9
20260506143635 78 170 2.0 6.0 0.00 0.00 0.00 67 1018.8
20260506143134 78 134 4.0 7.0 0.00 0.00 0.00 69 1018.7
20260506142632 78 119 5.0 10.0 0.00 0.00 0.00 68 1018.7
20260506142129 77 105 1.0 3.0 0.00 0.00 0.00 71 1018.7
20260506141627 77 180 2.0 4.0 0.00 0.00 0.00 71 1018.8
20260506141125 76 159 1.0 4.0 0.00 0.00 0.00 73 1019.1
20260506140622 76 123 2.0 7.0 0.00 0.00 0.00 75 1018.8
20260506140119 75 174 2.0 4.0 0.00 0.00 0.00 75 1018.9
20260506135616 75 111 4.0 8.0 0.00 0.00 0.00 75 1018.6
20260506135112 75 128 2.0 3.0 0.00 0.00 0.00 76 1018.4
20260506134609 75 156 2.0 4.0 0.00 0.00 0.00 76 1018.8
20260506134104 74 128 2.0 8.0 0.00 0.00 0.00 77 1018.9
20260506133602 74 144 3.0 6.0 0.00 0.00 0.00 77 1018.8
20260506133059 74 186 2.0 8.0 0.00 0.00 0.00 78 1018.8
20260506132556 73 151 4.0 7.0 0.00 0.00 0.00 78 1018.6
20260506132053 74 140 1.0 8.0 0.00 0.00 0.00 79 1018.6
20260506131551 73 187 2.0 2.0 0.00 0.00 0.00 80 1018.5
20260506131047 74 140 5.0 7.0 0.00 0.00 0.00 79 1018.5
20260506130544 73 83 0.0 1.0 0.00 0.00 0.00 80 1018.6
20260506130041 73 113 1.0 6.0 0.00 0.00 0.00 79 1018.5
20260506125540 73 124 1.0 2.0 0.00 0.00 0.00 80 1018.5
20260506125037 72 161 2.0 4.0 0.00 0.00 0.00 80 1018.5
20260506124535 72 126 1.0 6.0 0.00 0.00 0.00 81 1018.3
20260506124032 72 177 2.0 3.0 0.00 0.00 0.00 81 1018.1
20260506123530 72 147 4.0 7.0 0.00 0.00 0.00 81 1018.3
20260506123028 71 168 1.0 3.0 0.00 0.00 0.00 81 1018.6
20260506122524 71 142 2.0 2.0 0.00 0.00 0.00 82 1018.4
20260506122023 71 168 1.0 3.0 0.00 0.00 0.00 83 1018.3
20260506121519 71 152 2.0 6.0 0.00 0.00 0.00 84 1018.3
20260506121016 71 159 1.0 4.0 0.00 0.00 0.00 85 1018.3
20260506120514 70 158 1.0 4.0 0.00 0.00 0.00 86 1018.3
20260506120011 69 102 0.0 1.0 0.00 0.00 0.00 89 1018.3
20260506115509 68 156 1.0 2.0 0.00 0.00 0.00 92 1018.2
20260506115007 67 152 2.0 2.0 0.00 0.00 0.00 95 1018.1
20260506114504 66 153 0.0 2.0 0.00 0.00 0.00 97 1018.0
20260506114003 65 134 0.0 1.0 0.00 0.00 0.00 97 1018.1
20260506113500 65 196 0.0 0.0 0.00 0.00 0.00 98 1018.0
20260506112956 64 178 0.0 1.0 0.00 0.00 0.00 98 1018.0
20260506112454 64 220 0.0 0.0 0.00 0.00 0.00 98 1017.8
20260506111951 63 221 0.0 0.0 0.00 0.00 0.00 98 1017.9
20260506111449 63 221 0.0 0.0 0.00 0.00 0.00 98 1018.1
20260506110946 63 221 0.0 0.0 0.00 0.00 0.00 97 1017.9
20260506110444 63 223 0.0 0.0 0.00 0.00 0.00 97 1017.7
20260506105940 62 218 0.0 0.0 0.00 0.00 0.00 97 1017.9
20260506105436 62 217 0.0 0.0 0.00 0.00 0.00 97 1017.9
20260506104934 62 216 0.0 0.0 0.00 0.00 0.00 97 1017.8
20260506104432 62 243 0.0 0.0 0.00 0.00 0.00 97 1017.7
20260506103930 62 247 0.0 0.0 0.00 0.00 0.00 97 1017.7
20260506103427 62 218 0.0 0.0 0.00 0.00 0.00 97 1018.0
20260506102924 62 215 0.0 0.0 0.00 0.00 0.00 97 1017.8
20260506102422 62 207 0.0 0.0 0.00 0.00 0.00 96 1017.5
20260506101919 62 198 0.0 2.0 0.00 0.00 0.00 96 1017.5
20260506101414 62 169 0.0 0.0 0.00 0.00 0.00 96 1017.6
20260506100913 62 169 0.0 0.0 0.00 0.00 0.00 96 1017.6
20260506100410 62 169 0.0 0.0 0.00 0.00 0.00 96 1017.5
20260506095908 63 169 0.0 0.0 0.00 0.00 0.00 96 1017.4
20260506095406 63 169 0.0 0.0 0.00 0.00 0.00 96 1017.5
20260506094902 63 169 0.0 0.0 0.00 0.00 0.00 95 1017.7
20260506094401 63 169 0.0 0.0 0.00 0.00 0.00 95 1017.4
20260506093858 63 168 0.0 0.0 0.00 0.00 0.00 95 1017.5
20260506093356 63 168 0.0 0.0 0.00 0.00 0.00 95 1017.5
20260506092854 63 168 0.0 0.0 0.00 0.00 0.00 94 1017.4
20260506092351 64 168 0.0 0.0 0.00 0.00 0.00 94 1017.6
20260506091847 64 168 0.0 0.0 0.00 0.00 0.00 93 1017.7
20260506091345 64 167 0.0 0.0 0.00 0.00 0.00 93 1017.6
20260506090837 64 167 0.0 0.0 0.00 0.00 0.00 93 1017.6
20260506090335 64 167 0.0 0.0 0.00 0.00 0.00 92 1017.5
20260506085831 64 167 0.0 0.0 0.00 0.00 0.00 91 1017.5
20260506085327 65 166 0.0 0.0 0.00 0.00 0.00 91 1017.6
20260506084824 65 172 0.0 0.0 0.00 0.00 0.00 90 1017.7
20260506084320 65 180 0.0 0.0 0.00 0.00 0.00 90 1017.7
20260506083817 66 177 0.0 1.0 0.00 0.00 0.00 89 1017.9
20260506083314 66 188 0.0 0.0 0.00 0.00 0.00 89 1017.6
20260506082807 66 179 0.0 0.0 0.00 0.00 0.00 88 1017.7
20260506082304 67 148 0.0 2.0 0.00 0.00 0.00 88 1017.7
20260506081759 66 165 0.0 1.0 0.00 0.00 0.00 88 1017.7
20260506081257 67 163 0.0 2.0 0.00 0.00 0.00 88 1017.5
20260506080755 67 159 0.0 1.0 0.00 0.00 0.00 88 1017.6
20260506080251 67 167 0.0 1.0 0.00 0.00 0.00 88 1017.6
20260506073235 67 171 0.0 1.0 0.00 0.00 0.00 87 1017.4
20260506072732 67 163 1.0 1.0 0.00 0.00 0.00 87 1017.4
20260506072229 67 163 1.0 2.0 0.00 0.00 0.00 86 1017.3
20260506071727 67 161 1.0 3.0 0.00 0.00 0.00 86 1017.4
20260506071225 67 160 0.0 3.0 0.00 0.00 0.00 86 1017.3
20260506070721 67 172 0.0 2.0 0.00 0.00 0.00 85 1017.5
20260506070218 67 174 0.0 2.0 0.00 0.00 0.00 85 1017.4
20260506062155 67 156 1.0 2.0 0.00 0.00 0.00 86 1017.8
20260506061651 66 172 0.0 1.0 0.00 0.00 0.00 86 1017.6
20260506061149 66 176 0.0 0.0 0.00 0.00 0.00 87 1017.7
20260506060647 66 157 0.0 0.0 0.00 0.00 0.00 87 1017.8
20260506060144 66 192 0.0 0.0 0.00 0.00 0.00 87 1017.7
20260506051116 67 174 0.0 0.0 0.00 0.00 0.00 82 1018.4
20260506050614 67 180 0.0 0.0 0.00 0.00 0.00 81 1018.5
20260506050111 67 170 2.0 2.0 0.00 0.00 0.00 81 1018.3
20260506045104 67 141 1.0 2.0 0.00 0.00 0.00 80 1018.5
20260506044602 67 169 0.0 1.0 0.00 0.00 0.00 80 1018.7
20260506044058 67 175 0.0 2.0 0.00 0.00 0.00 80 1018.7
20260506043556 67 168 0.0 1.0 0.00 0.00 0.00 81 1018.6
20260506043054 67 151 0.0 1.0 0.00 0.00 0.00 80 1018.7
20260506042553 67 191 0.0 0.0 0.00 0.00 0.00 81 1018.6
20260506042050 66 195 0.0 1.0 0.00 0.00 0.00 82 1018.7
20260506041549 66 180 0.0 0.0 0.00 0.00 0.00 83 1018.6
20260506041045 66 162 0.0 0.0 0.00 0.00 0.00 82 1018.5
20260506040543 66 157 0.0 1.0 0.00 0.00 0.00 82 1018.6
20260506040039 66 176 0.0 0.0 0.00 0.00 0.00 81 1018.7
20260506035536 66 179 0.0 0.0 0.00 0.00 0.00 81 1018.9
20260506035033 66 188 0.0 2.0 0.00 0.00 0.00 81 1018.6
20260506034530 66 185 0.0 0.0 0.00 0.00 0.00 82 1018.5
20260506034027 65 149 0.0 0.0 0.00 0.00 0.00 81 1018.4
20260506033524 65 148 0.0 0.0 0.00 0.00 0.00 80 1018.5
20260506033021 65 143 0.0 0.0 0.00 0.00 0.00 80 1018.6
20260506032519 65 129 0.0 0.0 0.00 0.00 0.00 80 1018.5
20260506032015 65 212 0.0 0.0 0.00 0.00 0.00 80 1018.6
20260506031513 65 189 0.0 0.0 0.00 0.00 0.00 81 1018.8
20260506031009 65 190 0.0 0.0 0.00 0.00 0.00 81 1018.5
20260506030508 64 52 0.0 0.0 0.00 0.00 0.00 82 1018.6
20260506030005 64 52 0.0 0.0 0.00 0.00 0.00 83 1018.6
20260506025501 64 52 0.0 0.0 0.00 0.00 0.00 82 1018.9
20260506024958 64 52 0.0 0.0 0.00 0.00 0.00 82 1018.9
20260506024454 64 52 0.0 0.0 0.00 0.00 0.00 82 1019.0
20260506023950 65 55 0.0 0.0 0.00 0.00 0.00 81 1019.0
20260506023447 65 55 0.0 0.0 0.00 0.00 0.00 81 1019.2
20260506022944 65 188 0.0 0.0 0.00 0.00 0.00 81 1019.2
20260506022442 65 188 0.0 0.0 0.00 0.00 0.00 80 1019.1
20260506021940 65 187 0.0 0.0 0.00 0.00 0.00 79 1019.1
20260506021437 65 187 0.0 0.0 0.00 0.00 0.00 79 1019.1
20260506020934 65 190 0.0 0.0 0.00 0.00 0.00 79 1018.8
20260506020431 66 189 0.0 0.0 0.00 0.00 0.00 78 1018.7
20260506015928 66 186 0.0 0.0 0.00 0.00 0.00 77 1018.7
20260506015426 65 198 0.0 0.0 0.00 0.00 0.00 78 1018.8
20260506014923 65 205 0.0 0.0 0.00 0.00 0.00 78 1018.4
20260506014419 65 203 0.0 0.0 0.00 0.00 0.00 77 1018.4
20260506013916 65 101 0.0 2.0 0.00 0.00 0.00 77 1018.4
20260506013414 65 111 0.0 0.0 0.00 0.00 0.00 77 1018.5
20260506012910 65 118 0.0 0.0 0.00 0.00 0.00 77 1018.6
20260506012407 66 142 0.0 0.0 0.00 0.00 0.00 76 1018.7
20260506011904 66 141 0.0 0.0 0.00 0.00 0.00 76 1018.6
20260506011401 66 151 1.0 2.0 0.00 0.00 0.00 76 1018.9
20260506010858 66 166 0.0 0.0 0.00 0.00 0.00 76 1018.5
20260506010356 66 62 0.0 0.0 0.00 0.00 0.00 76 1018.4
20260506005853 66 62 0.0 0.0 0.00 0.00 0.00 76 1018.3
20260506005350 66 63 0.0 2.0 0.00 0.00 0.00 76 1018.2
20260506004845 66 36 0.0 0.0 0.00 0.00 0.00 75 1018.4
20260506004343 67 36 0.0 0.0 0.00 0.00 0.00 75 1018.6
20260506003839 67 36 0.0 0.0 0.00 0.00 0.00 74 1018.7